STARLINK-1621, 46127

Orbit data source: Space-Track

STARLINK-1621, 46127 is a payload satellite owned by SpaceX/Seattle (US) in LEO that was launched on Tue, 18 Aug 2020 UTC via an FALCON 9 launch vehicle from the Air Force Eastern Test Range (AFETR). Payload-class satellites include a variety of spacecraft equipped with specific instruments for various scientific and technological missions. These include communications satellites like Starlink; space stations such as the ISS; scientific satellites like the Hubble; Earth observation satellites from companies like Planet Labs, Umbra, and HawkEye 360; GPS; miniature CubeSats for education and research; and military/defense satellites.

Loading next visibility...
Identifier
46127, 2020-057L
Orbit
LEO
Country
Flag of USUS
Related business
Manufacturer
SpaceX/Seattle
Mission
Partially operational Commercial Communications
Bus & Motor
STARLINK, Unknown motor
Mass
260 kg wet, ~248 kg dry
Launch date (UTC)
2020-08-18 (6 years ago)
Launch vehicle
FALCON 9
Launch site
Air Force Eastern Test Range (AFETR)
Object type
Payload
Rocket body
Debris
Shape & HBR
Box + 1 Pan, 10.1 m
Radar Cross Section
13.562 m², Large (>1 m²)

Expand to show TLE details & history
Last TLE update: 11 hours ago

TLE from 11 hours ago
0 STARLINK-1621
1 46127U 20057L   26072.00002315  .00197006  00000-0  10853-2 0  9994
2 46127  53.0441 227.1028 0005150 269.6731 254.5048 15.78592301  5976
Epoch: 2026-03-13T00:00Z
TLE epoch observation values (Epoch: 2026-03-13T00:00:02.000Z)
Latitude
12.62798°
Longitude
-133.19605°
Altitude
335.494 km
Speed
7.709 km/s
True Right ascension
02h 29m 48s
True Declination
12° 33' 01"
Sunlit
Object was in daylight at epoch
Visualization orbit readout
Latitude
Unknown
Longitude
Unknown
Altitude
Unknown
Speed
Unknown
Apparent Right ascension
Unknown
Apparent Declination
Unknown
Sunlit
N/A
Visualization observer readout
Local Sidereal Time
15:41:15
Azimuth
Unknown
Elevation
Unknown
Doppler factor
Unknown
Orbital elements
Apogee altitude
338.166 km
Perigee altitude
331.252 km
Semi-major axis
6,712.846 km
Eccentricity
0.00052
Inclination
53.0441°
RAAN
227.1028°
Arg. of periapsis
269.6731°
True anomaly
254.44794°
Mean anomaly
254.5048°
Eccentric anomaly
254.47637°
Mean motion
3.94624 °/min
Orbital period
91.23 mins
BSTAR
0.0010853
Loading maneuver chart data...
Computing Atmospheric mass density...

Documentation

Showing up to 5 results
|